Regional Weather Roundup
Issued by NWS

Home | Current Version | Previous Version | Text Only | Print | Product List | Glossary On
Versions: 1 2 3 4 5 6 7 8 9 10 11 12 13 14 15 16 17 18 19 20 21 22 23 24 25 26 27 28 29 30 31 32 33 34 35 36 37 38 39 40 41 42 43 44 45 46 47 48 49 50
551
ASUS44 KJAN 200503
RWRMS

MISSISSIPPI HOURLY WEATHER ROUNDUP
NATIONAL WEATHER SERVICE JACKSON MS
1200 AM CDT WED AUG 20 2014

NOTE: "FAIR: INDICATES FEW OR NO CLOUDS BELOW 12,000 FEET WITH NO
SIGNIFICANT WEATHER AND/OR OBSTRUCTIONS TO VISIBILITY.

MSZ001>002-007>008-010>013-018>021-025>028-034>036-200600-
NORTHWEST MISSISSIPPI

CITY           SKY/WX    TMP DP  RH WIND       PRES   REMARKS
CLARKSDALE     FAIR      79  79 100 CALM      29.93R
CLEVELAND      FAIR      75  73  93 S7        29.92S
GREENWOOD      PTCLDY    76  73  91 CALM      29.94R
GREENVILLE       N/A    N/A N/A N/A MISG      29.92S
GRENADA        FAIR      77  72  83 CALM      29.95S
OLIVE BRANCH   CLEAR     81  81 100 SW9       29.91S HX  91
OXFORD         FAIR      79  72  78 SW7       29.95R
TUNICA         CLEAR     79  77  94 SW7       29.92S
$$

MSZ003>006-009-014>017-022>024-029>033-037>039-200600-
NORTHEAST MISSISSIPPI

CITY           SKY/WX    TMP DP  RH WIND       PRES   REMARKS
BELMONT        FAIR      78  74  87 SW5       29.95S
COLUMBUS AFB   MOCLDY    77  71  82 S6        29.94F
CORINTH        FAIR      77  73  88 S5        29.91S
GOLDN TRIANGLE MOCLDY    77  68  73 SW3       29.96S
STARKVILLE     FAIR      75  70  83 CALM      29.96S
TUPELO         CLEAR     81  74  79 SW7       29.92S
$$

MSZ040-058-200600-
CENTRAL MISSISSIPPI

CITY           SKY/WX    TMP DP  RH WIND       PRES   REMARKS
JACKSON INTL   PTCLDY    78  74  87 S3        29.97S
JACKSON HAWKNS PTCLDY    80  73  79 SW3       29.98R
MERIDIAN KEY   PTCLDY    71  68  90 CALM      29.98F
MERIDIAN NAS   PTCLDY    72  69  90 S3        29.98S
RAYMOND        FAIR      79  73  83 SW6       29.97S
VICKSBURG      CLOUDY    76  72  87 CALM      29.96S
$$

MSZ059>079-200600-
SOUTH MISSISSIPPI

CITY           SKY/WX    TMP DP  RH WIND       PRES   REMARKS
BROOKHAVEN     FAIR      79  73  83 W6        30.00S
COLUMBIA       FOG       75  75 100 MISG      29.97F VSB 1/2
HATTIESBURG    PTCLDY    80  73  79 CALM      29.99F
MCCOMB         MOCLDY    77  73  87 W3        29.99S
NATCHEZ        PTCLDY    73  70  88 CALM      29.98S
PINE BELT      PTCLDY    73  70  88 SE5       30.00F
$$

MSZ080>082-200600-
COASTAL MISSISSIPPI

CITY           SKY/WX    TMP DP  RH WIND       PRES   REMARKS
BILOXI         PTCLDY    83  76  79 SW9       29.98F HX  90
PASCAGOULA     CLEAR     79  76  90 S3        29.98F
GULFPORT       PTCLDY    81  74  79 CALM      29.97F
$$



USA.gov is the U.S. government's official web portal to all federal, state and local government web resources and services.